Time,TemperatureF,DewpointF,PressureIn,WindDirection,WindDirectionDegrees,WindSpeedMPH,WindSpeedGustMPH,Humidity,HourlyPrecipIn,Conditions,Clouds,dailyrainin,SoftwareType,DateUTC
2013-02-28 00:03:00,31.9,29.3,30.13,North,8,0.0,5.2,90,0.00,,,-99.99,Meteorologica,2013-02-28 06:03:00,
2013-02-28 00:08:00,32.0,29.5,30.14,NNW,335,3.5,7.1,90,0.00,,,-99.99,Meteorologica,2013-02-28 06:08:00,
2013-02-28 00:13:00,32.4,29.7,30.14,NNW,339,4.9,7.9,89,0.00,,,-99.99,Meteorologica,2013-02-28 06:13:00,
2013-02-28 00:18:00,32.9,30.0,30.14,NNE,23,6.0,10.9,89,0.00,,,-99.99,Meteorologica,2013-02-28 06:18:00,
2013-02-28 00:23:00,33.2,30.1,30.14,SW,234,6.7,10.8,88,0.00,,,-99.99,Meteorologica,2013-02-28 06:23:00,
2013-02-28 00:28:00,33.5,30.3,30.13,North,349,5.3,9.5,88,0.00,,,-99.99,Meteorologica,2013-02-28 06:28:00,
2013-02-28 00:33:00,33.7,30.3,30.13,NNW,345,5.8,10.5,87,0.00,,,-99.99,Meteorologica,2013-02-28 06:33:00,
2013-02-28 00:38:00,33.9,30.1,30.13,NNW,331,7.3,10.8,85,0.00,,,-99.99,Meteorologica,2013-02-28 06:38:00,
2013-02-28 00:43:00,34.2,30.1,30.14,SW,226,6.9,11.0,85,0.00,,,-99.99,Meteorologica,2013-02-28 06:43:00,
2013-02-28 00:48:00,34.6,30.3,30.14,SW,232,7.0,12.0,84,0.00,,,-99.99,Meteorologica,2013-02-28 06:48:00,
2013-02-28 00:53:00,34.7,30.4,30.14,SW,226,6.0,12.8,84,0.00,,,-99.99,Meteorologica,2013-02-28 06:53:00,
2013-02-28 00:58:00,34.8,30.6,30.14,SW,226,5.5,13.0,84,0.00,,,-99.99,Meteorologica,2013-02-28 06:58:00,
2013-02-28 01:03:00,34.8,30.6,30.13,SW,222,5.2,12.6,84,0.00,,,-99.99,Meteorologica,2013-02-28 07:03:00,
2013-02-28 01:08:00,34.9,30.6,30.13,SW,232,6.1,12.8,84,0.00,,,-99.99,Meteorologica,2013-02-28 07:08:00,
2013-02-28 01:13:00,34.8,30.5,30.13,ESE,123,8.2,13.0,84,0.00,,,-99.99,Meteorologica,2013-02-28 07:13:00,
2013-02-28 01:18:00,34.9,30.6,30.13,NNW,334,7.3,12.1,84,0.00,,,-99.99,Meteorologica,2013-02-28 07:18:00,
2013-02-28 01:23:00,34.8,30.5,30.13,SW,231,5.5,11.5,84,0.00,,,-99.99,Meteorologica,2013-02-28 07:23:00,
2013-02-28 01:28:00,34.7,30.4,30.13,North,351,6.8,11.0,84,0.00,,,-99.99,Meteorologica,2013-02-28 07:28:00,
2013-02-28 01:33:00,34.9,30.6,30.13,North,351,7.3,11.2,84,0.00,,,-99.99,Meteorologica,2013-02-28 07:33:00,
2013-02-28 01:38:00,34.7,30.3,30.14,NW,319,5.4,10.2,84,0.00,,,-99.99,Meteorologica,2013-02-28 07:38:00,
2013-02-28 01:43:00,34.7,30.3,30.13,WSW,238,5.8,10.6,84,0.00,,,-99.99,Meteorologica,2013-02-28 07:43:00,
2013-02-28 01:48:00,34.7,30.3,30.14,NW,320,6.7,10.1,83,0.00,,,-99.99,Meteorologica,2013-02-28 07:48:00,
2013-02-28 01:53:00,34.7,30.2,30.14,North,359,7.3,11.3,83,0.00,,,-99.99,Meteorologica,2013-02-28 07:53:00,
2013-02-28 01:58:00,34.8,30.3,30.13,NNW,337,6.4,12.3,83,0.00,,,-99.99,Meteorologica,2013-02-28 07:58:00,
2013-02-28 02:03:00,34.6,30.0,30.14,NNW,332,6.4,10.7,83,0.00,,,-99.99,Meteorologica,2013-02-28 08:03:00,
2013-02-28 02:08:00,34.5,29.9,30.14,WSW,237,7.4,13.0,83,0.00,,,-99.99,Meteorologica,2013-02-28 08:08:00,
2013-02-28 02:13:00,34.6,30.0,30.14,SW,226,5.9,9.1,83,0.00,,,-99.99,Meteorologica,2013-02-28 08:13:00,
2013-02-28 02:18:00,34.5,29.6,30.14,SE,131,5.0,10.4,82,0.00,,,-99.99,Meteorologica,2013-02-28 08:18:00,
2013-02-28 02:23:00,34.3,29.5,30.14,WSW,238,7.8,15.6,82,0.00,,,-99.99,Meteorologica,2013-02-28 08:23:00,
2013-02-28 02:28:00,34.4,29.8,30.14,NE,34,5.4,12.5,83,0.00,,,-99.99,Meteorologica,2013-02-28 08:28:00,
2013-02-28 02:33:00,34.3,29.6,30.14,SE,129,7.1,11.3,82,0.00,,,-99.99,Meteorologica,2013-02-28 08:33:00,
2013-02-28 02:38:00,34.4,29.9,30.14,SW,229,6.3,10.7,83,0.00,,,-99.99,Meteorologica,2013-02-28 08:38:00,
2013-02-28 02:43:00,34.4,30.1,30.15,North,2,2.5,7.4,84,0.00,,,-99.99,Meteorologica,2013-02-28 08:43:00,
2013-02-28 02:49:00,34.4,30.2,30.15,NNW,340,2.3,5.0,84,0.00,,,-99.99,Meteorologica,2013-02-28 08:49:00,
2013-02-28 02:54:00,34.3,30.4,30.15,NNW,331,4.9,5.8,85,0.00,,,-99.99,Meteorologica,2013-02-28 08:54:00,
2013-02-28 02:59:00,34.4,30.6,30.14,NNW,343,5.0,6.6,86,0.00,,,-99.99,Meteorologica,2013-02-28 08:59:00,
2013-02-28 03:04:00,34.2,30.4,30.14,NNE,15,6.5,9.3,86,0.00,,,-99.99,Meteorologica,2013-02-28 09:04:00,
2013-02-28 03:09:00,34.1,29.8,30.14,ESE,120,6.2,7.9,84,0.00,,,-99.99,Meteorologica,2013-02-28 09:09:00,
2013-02-28 03:14:00,34.0,29.6,30.14,WSW,241,7.2,9.9,83,0.00,,,-99.99,Meteorologica,2013-02-28 09:14:00,
2013-02-28 03:19:00,34.1,29.8,30.14,SE,128,4.9,7.3,84,0.00,,,-99.99,Meteorologica,2013-02-28 09:19:00,
2013-02-28 03:24:00,33.8,29.7,30.14,NNW,343,7.1,12.3,84,0.00,,,-99.99,Meteorologica,2013-02-28 09:24:00,
2013-02-28 03:29:00,33.7,29.5,30.14,NNW,338,8.4,10.8,84,0.00,,,-99.99,Meteorologica,2013-02-28 09:29:00,
2013-02-28 03:34:00,33.5,29.3,30.14,NNW,337,8.4,12.5,84,0.00,,,-99.99,Meteorologica,2013-02-28 09:34:00,
2013-02-28 03:39:00,33.4,29.1,30.14,NNE,13,4.6,5.8,84,0.00,,,-99.99,Meteorologica,2013-02-28 09:39:00,
2013-02-28 03:44:00,33.3,29.0,30.14,NNW,348,6.3,8.1,84,0.00,,,-99.99,Meteorologica,2013-02-28 09:44:00,
2013-02-28 03:49:00,33.1,28.9,30.14,SW,231,7.1,11.0,84,0.00,,,-99.99,Meteorologica,2013-02-28 09:49:00,
2013-02-28 03:54:00,33.1,28.9,30.14,NNW,327,7.5,11.4,84,0.00,,,-99.99,Meteorologica,2013-02-28 09:54:00,
2013-02-28 03:59:00,32.9,28.6,30.15,NNW,327,7.7,9.1,84,0.00,,,-99.99,Meteorologica,2013-02-28 09:59:00,
2013-02-28 04:04:00,32.8,28.5,30.15,North,351,7.9,9.6,84,0.00,,,-99.99,Meteorologica,2013-02-28 10:04:00,
2013-02-28 04:09:00,33.1,29.1,30.15,North,5,5.0,7.3,85,0.00,,,-99.99,Meteorologica,2013-02-28 10:09:00,
2013-02-28 04:14:00,33.1,29.3,30.15,NE,45,4.5,6.2,85,0.00,,,-99.99,Meteorologica,2013-02-28 10:14:00,
2013-02-28 04:19:00,33.1,29.2,30.15,ESE,115,4.9,6.2,85,0.00,,,-99.99,Meteorologica,2013-02-28 10:19:00,
2013-02-28 04:24:00,33.0,29.1,30.16,NW,311,4.8,6.4,85,0.00,,,-99.99,Meteorologica,2013-02-28 10:24:00,
2013-02-28 04:29:00,32.9,29.1,30.16,NNE,14,6.5,9.6,85,0.00,,,-99.99,Meteorologica,2013-02-28 10:29:00,
2013-02-28 04:34:00,32.9,29.0,30.16,North,349,7.2,9.9,85,0.00,,,-99.99,Meteorologica,2013-02-28 10:34:00,
2013-02-28 04:39:00,32.8,28.8,30.16,WSW,241,7.0,11.2,84,0.00,,,-99.99,Meteorologica,2013-02-28 10:39:00,
2013-02-28 04:44:00,32.7,28.6,30.16,NW,325,7.3,10.3,84,0.00,,,-99.99,Meteorologica,2013-02-28 10:44:00,
2013-02-28 04:49:00,32.6,28.4,30.16,NNW,343,8.7,11.5,84,0.00,,,-99.99,Meteorologica,2013-02-28 10:49:00,
2013-02-28 04:54:00,32.6,28.5,30.16,NNE,14,6.9,7.6,84,0.00,,,-99.99,Meteorologica,2013-02-28 10:54:00,
2013-02-28 04:59:00,32.6,28.5,30.17,WSW,239,5.5,8.0,84,0.00,,,-99.99,Meteorologica,2013-02-28 10:59:00,
2013-02-28 05:04:00,32.5,28.6,30.16,North,354,7.7,12.5,85,0.00,,,-99.99,Meteorologica,2013-02-28 11:04:00,
2013-02-28 05:09:00,32.3,28.3,30.16,WSW,240,9.0,11.4,85,0.00,,,-99.99,Meteorologica,2013-02-28 11:09:00,
2013-02-28 05:14:00,32.2,28.3,30.17,ESE,120,8.5,12.1,85,0.00,,,-99.99,Meteorologica,2013-02-28 11:14:00,
2013-02-28 05:19:00,32.1,28.3,30.17,NNE,14,7.8,11.0,86,0.00,,,-99.99,Meteorologica,2013-02-28 11:19:00,
2013-02-28 05:24:00,32.0,28.2,30.17,SW,225,8.9,13.9,85,0.00,,,-99.99,Meteorologica,2013-02-28 11:24:00,
2013-02-28 05:29:00,32.1,28.4,30.17,NNE,20,6.9,10.5,86,0.00,,,-99.99,Meteorologica,2013-02-28 11:29:00,
2013-02-28 05:34:00,32.0,28.3,30.17,NW,322,5.8,7.2,86,0.00,,,-99.99,Meteorologica,2013-02-28 11:34:00,
2013-02-28 05:39:00,32.1,28.4,30.17,SW,235,5.9,6.8,86,0.00,,,-99.99,Meteorologica,2013-02-28 11:39:00,
2013-02-28 05:44:00,32.1,28.5,30.17,NNW,345,5.8,8.0,86,0.00,,,-99.99,Meteorologica,2013-02-28 11:44:00,
2013-02-28 05:49:00,32.1,28.7,30.18,SE,124,5.1,12.5,87,0.00,,,-99.99,Meteorologica,2013-02-28 11:49:00,
2013-02-28 05:54:00,32.2,28.6,30.18,ESE,119,2.5,4.4,86,0.00,,,-99.99,Meteorologica,2013-02-28 11:54:00,
2013-02-28 05:59:00,32.2,28.7,30.18,North,8,3.3,4.2,86,0.00,,,-99.99,Meteorologica,2013-02-28 11:59:00,
2013-02-28 06:04:00,32.0,28.5,30.18,NNE,21,4.9,7.4,86,0.00,,,-99.99,Meteorologica,2013-02-28 12:04:00,
2013-02-28 06:09:00,32.0,28.6,30.19,NNW,341,5.7,8.4,87,0.00,,,-99.99,Meteorologica,2013-02-28 12:09:00,
2013-02-28 06:14:00,31.6,28.1,30.19,SE,132,7.5,11.0,86,0.00,,,-99.99,Meteorologica,2013-02-28 12:14:00,
2013-02-28 06:19:00,31.6,28.3,30.19,NNW,338,4.8,7.1,87,0.00,,,-99.99,Meteorologica,2013-02-28 12:19:00,
2013-02-28 06:24:00,31.4,28.1,30.18,North,10,4.6,6.3,87,0.00,,,-99.99,Meteorologica,2013-02-28 12:24:00,
2013-02-28 06:29:00,31.4,28.2,30.19,NNE,25,6.5,7.4,88,0.00,,,-99.99,Meteorologica,2013-02-28 12:29:00,
2013-02-28 06:34:00,31.4,28.4,30.19,North,354,2.7,3.5,88,0.00,,,-99.99,Meteorologica,2013-02-28 12:34:00,
2013-02-28 06:39:00,31.3,28.2,30.19,NNE,22,0.0,0.0,88,0.00,,,-99.99,Meteorologica,2013-02-28 12:39:00,
2013-02-28 06:44:00,31.2,28.3,30.19,NE,47,1.3,3.4,89,0.00,,,-99.99,Meteorologica,2013-02-28 12:44:00,
2013-02-28 06:49:00,31.2,28.2,30.19,NNW,348,2.9,3.3,88,0.00,,,-99.99,Meteorologica,2013-02-28 12:49:00,
2013-02-28 06:54:00,31.1,28.1,30.20,NE,36,0.0,0.0,88,0.00,,,-99.99,Meteorologica,2013-02-28 12:54:00,
2013-02-28 06:59:00,31.1,28.2,30.20,NE,36,0.0,0.0,89,0.00,,,-99.99,Meteorologica,2013-02-28 12:59:00,
2013-02-28 07:04:00,30.9,27.9,30.20,North,350,7.1,9.2,88,0.00,,,-99.99,Meteorologica,2013-02-28 13:04:00,
2013-02-28 07:09:00,30.9,27.9,30.19,ESE,123,5.5,8.9,88,0.00,,,-99.99,Meteorologica,2013-02-28 13:09:00,
2013-02-28 07:14:00,31.0,28.0,30.20,NNE,17,5.4,7.2,88,0.00,,,-99.99,Meteorologica,2013-02-28 13:14:00,
2013-02-28 07:19:00,31.0,28.0,30.20,WSW,241,4.8,6.6,88,0.00,,,-99.99,Meteorologica,2013-02-28 13:19:00,
2013-02-28 07:24:00,31.0,28.0,30.20,NW,311,6.4,8.5,88,0.00,,,-99.99,Meteorologica,2013-02-28 13:24:00,
2013-02-28 07:29:00,31.0,28.1,30.21,NE,34,4.1,5.2,89,0.00,,,-99.99,Meteorologica,2013-02-28 13:29:00,
2013-02-28 07:34:00,30.9,27.8,30.21,ESE,119,6.1,9.5,88,0.00,,,-99.99,Meteorologica,2013-02-28 13:34:00,
2013-02-28 07:39:00,30.9,27.9,30.21,WSW,238,6.2,8.7,88,0.00,,,-99.99,Meteorologica,2013-02-28 13:39:00,
2013-02-28 07:44:00,30.8,27.8,30.21,NNW,339,4.8,6.0,88,0.00,,,-99.99,Meteorologica,2013-02-28 13:44:00,
2013-02-28 07:49:00,30.8,27.8,30.21,ESE,121,5.7,8.6,88,0.00,,,-99.99,Meteorologica,2013-02-28 13:49:00,
2013-02-28 07:54:00,30.8,27.9,30.21,North,6,5.3,7.9,89,0.00,,,-99.99,Meteorologica,2013-02-28 13:54:00,
2013-02-28 07:59:00,30.7,27.8,30.21,North,7,6.4,8.2,88,0.00,,,-99.99,Meteorologica,2013-02-28 13:59:00,
2013-02-28 08:04:00,30.9,28.0,30.21,WSW,239,5.1,6.0,89,0.00,,,-99.99,Meteorologica,2013-02-28 14:04:00,
2013-02-28 08:09:00,30.9,27.9,30.21,WSW,239,4.8,5.4,88,0.00,,,-99.99,Meteorologica,2013-02-28 14:09:00,
2013-02-28 08:15:00,30.8,27.9,30.22,NNE,28,1.6,6.6,88,0.00,,,-99.99,Meteorologica,2013-02-28 14:15:00,
2013-02-28 08:20:00,30.9,27.9,30.22,SE,125,6.5,10.7,88,0.00,,,-99.99,Meteorologica,2013-02-28 14:20:00,
2013-02-28 08:25:00,30.7,27.7,30.22,NNW,340,5.1,9.6,88,0.00,,,-99.99,Meteorologica,2013-02-28 14:25:00,
2013-02-28 08:30:00,30.5,27.2,30.22,NNE,24,7.9,12.6,87,0.00,,,-99.99,Meteorologica,2013-02-28 14:30:00,
2013-02-28 08:35:00,30.5,27.4,30.22,NNW,346,3.7,6.0,88,0.00,,,-99.99,Meteorologica,2013-02-28 14:35:00,
2013-02-28 08:40:00,30.5,27.4,30.22,WSW,241,7.0,9.9,88,0.00,,,-99.99,Meteorologica,2013-02-28 14:40:00,
2013-02-28 08:45:00,30.3,27.2,30.22,ESE,115,6.9,11.9,88,0.00,,,-99.99,Meteorologica,2013-02-28 14:45:00,
2013-02-28 08:50:00,30.4,27.5,30.22,NNW,331,6.0,8.3,88,0.00,,,-99.99,Meteorologica,2013-02-28 14:50:00,
2013-02-28 08:55:00,30.6,27.5,30.22,North,354,5.9,8.5,88,0.00,,,-99.99,Meteorologica,2013-02-28 14:55:00,
2013-02-28 09:00:00,30.7,27.5,30.23,WSW,242,6.1,8.6,87,0.00,,,-99.99,Meteorologica,2013-02-28 15:00:00,
2013-02-28 09:05:00,30.8,27.5,30.23,WSW,239,4.1,6.0,87,0.00,,,-99.99,Meteorologica,2013-02-28 15:05:00,
2013-02-28 09:10:00,31.0,27.6,30.23,WSW,242,4.8,8.6,87,0.00,,,-99.99,Meteorologica,2013-02-28 15:10:00,
2013-02-28 09:15:00,30.9,27.6,30.23,NW,326,6.1,8.9,87,0.00,,,-99.99,Meteorologica,2013-02-28 15:15:00,
2013-02-28 09:20:00,30.8,27.3,30.23,SW,231,6.7,9.1,86,0.00,,,-99.99,Meteorologica,2013-02-28 15:20:00,
2013-02-28 09:25:00,30.8,27.3,30.23,WSW,239,2.0,7.1,86,0.00,,,-99.99,Meteorologica,2013-02-28 15:25:00,
2013-02-28 09:30:00,30.9,27.6,30.23,North,353,5.3,7.4,87,0.00,,,-99.99,Meteorologica,2013-02-28 15:30:00,
2013-02-28 09:35:00,30.9,27.6,30.23,ESE,119,3.3,5.2,87,0.00,,,-99.99,Meteorologica,2013-02-28 15:35:00,
2013-02-28 09:40:00,31.1,27.8,30.24,NNW,337,5.1,6.7,87,0.00,,,-99.99,Meteorologica,2013-02-28 15:40:00,
2013-02-28 09:45:00,30.9,27.1,30.23,ESE,123,7.5,10.0,85,0.00,,,-99.99,Meteorologica,2013-02-28 15:45:00,
2013-02-28 09:50:00,31.0,27.5,30.24,NNW,339,5.5,6.9,87,0.00,,,-99.99,Meteorologica,2013-02-28 15:50:00,
2013-02-28 09:55:00,31.0,27.6,30.23,SE,142,5.6,9.9,86,0.00,,,-99.99,Meteorologica,2013-02-28 15:55:00,
2013-02-28 10:01:00,31.2,27.7,30.23,NNW,330,6.9,11.2,86,0.00,,,-99.99,Meteorologica,2013-02-28 16:01:00,
2013-02-28 10:07:00,31.3,27.7,30.24,NNW,329,7.1,9.9,86,0.00,,,-99.99,Meteorologica,2013-02-28 16:07:00,
2013-02-28 10:12:00,31.3,27.7,30.24,North,8,5.4,10.5,86,0.00,,,-99.99,Meteorologica,2013-02-28 16:12:00,
2013-02-28 10:17:00,31.4,27.8,30.24,NNW,346,2.7,7.1,86,0.00,,,-99.99,Meteorologica,2013-02-28 16:17:00,
2013-02-28 10:22:00,31.5,27.6,30.24,NNE,12,7.3,10.3,85,0.00,,,-99.99,Meteorologica,2013-02-28 16:22:00,
2013-02-28 10:27:00,31.4,27.5,30.24,NNW,340,6.9,9.4,85,0.00,,,-99.99,Meteorologica,2013-02-28 16:27:00,
2013-02-28 10:32:00,31.5,27.5,30.24,NNE,14,6.2,11.2,85,0.00,,,-99.99,Meteorologica,2013-02-28 16:32:00,
2013-02-28 10:37:00,31.5,27.6,30.24,WSW,240,6.3,9.4,85,0.00,,,-99.99,Meteorologica,2013-02-28 16:37:00,
2013-02-28 10:42:00,31.5,27.6,30.24,NNE,24,6.1,11.3,85,0.00,,,-99.99,Meteorologica,2013-02-28 16:42:00,
2013-02-28 10:47:00,31.6,27.5,30.24,ESE,119,7.6,12.0,84,0.00,,,-99.99,Meteorologica,2013-02-28 16:47:00,
2013-02-28 10:52:00,31.8,28.1,30.24,ESE,122,4.7,9.6,86,0.00,,,-99.99,Meteorologica,2013-02-28 16:52:00,
2013-02-28 10:57:00,31.9,27.7,30.24,NW,309,6.0,11.7,84,0.00,,,-99.99,Meteorologica,2013-02-28 16:57:00,
2013-02-28 11:02:00,31.8,27.6,30.24,NNW,338,5.7,12.8,84,0.00,,,-99.99,Meteorologica,2013-02-28 17:02:00,
2013-02-28 11:07:00,32.1,28.0,30.24,ESE,122,5.6,9.9,84,0.00,,,-99.99,Meteorologica,2013-02-28 17:07:00,
2013-02-28 11:12:00,32.2,27.8,30.24,NNW,329,4.6,13.5,83,0.00,,,-99.99,Meteorologica,2013-02-28 17:12:00,
2013-02-28 11:17:00,32.3,28.0,30.24,SW,222,6.2,9.9,84,0.00,,,-99.99,Meteorologica,2013-02-28 17:17:00,
2013-02-28 11:22:00,32.6,28.3,30.24,North,351,5.8,8.6,84,0.00,,,-99.99,Meteorologica,2013-02-28 17:22:00,
2013-02-28 11:27:00,32.7,28.3,30.24,NNW,344,5.7,8.9,83,0.00,,,-99.99,Meteorologica,2013-02-28 17:27:00,
2013-02-28 11:32:00,32.6,28.7,30.25,WSW,240,4.7,10.5,85,0.00,,,-99.99,Meteorologica,2013-02-28 17:32:00,
2013-02-28 11:37:00,32.4,28.1,30.24,WSW,238,6.3,9.6,84,0.00,,,-99.99,Meteorologica,2013-02-28 17:37:00,
2013-02-28 11:42:00,32.4,28.4,30.25,WSW,238,5.8,10.2,85,0.00,,,-99.99,Meteorologica,2013-02-28 17:42:00,
2013-02-28 11:47:00,32.6,28.4,30.25,SW,220,5.4,12.2,84,0.00,,,-99.99,Meteorologica,2013-02-28 17:47:00,
2013-02-28 11:52:00,32.6,28.5,30.25,NW,322,5.2,10.2,84,0.00,,,-99.99,Meteorologica,2013-02-28 17:52:00,
2013-02-28 11:57:00,32.9,28.6,30.25,SE,128,6.4,9.5,83,0.00,,,-99.99,Meteorologica,2013-02-28 17:57:00,
2013-02-28 12:02:00,32.9,28.2,30.25,NNW,334,7.1,12.0,82,0.00,,,-99.99,Meteorologica,2013-02-28 18:02:00,
2013-02-28 12:07:00,32.9,28.4,30.25,NNW,329,4.8,13.0,83,0.00,,,-99.99,Meteorologica,2013-02-28 18:07:00,
2013-02-28 12:12:00,33.0,28.3,30.25,NNW,334,5.7,10.4,82,0.00,,,-99.99,Meteorologica,2013-02-28 18:12:00,
2013-02-28 12:17:00,32.9,28.4,30.25,NW,325,6.3,8.3,83,0.00,,,-99.99,Meteorologica,2013-02-28 18:17:00,
2013-02-28 12:22:00,33.1,28.5,30.25,NNW,337,4.4,9.2,83,0.00,,,-99.99,Meteorologica,2013-02-28 18:22:00,
2013-02-28 12:27:00,33.2,28.3,30.25,WSW,239,6.8,11.3,82,0.00,,,-99.99,Meteorologica,2013-02-28 18:27:00,
2013-02-28 12:32:00,33.4,28.8,30.24,NNE,22,4.8,7.9,83,0.00,,,-99.99,Meteorologica,2013-02-28 18:32:00,
2013-02-28 12:37:00,33.4,29.0,30.25,NNW,331,6.5,10.4,83,0.00,,,-99.99,Meteorologica,2013-02-28 18:37:00,
2013-02-28 12:42:00,33.2,28.6,30.24,NNW,341,7.0,11.5,83,0.00,,,-99.99,Meteorologica,2013-02-28 18:42:00,
2013-02-28 12:47:00,33.5,28.9,30.24,SE,128,5.7,9.3,83,0.00,,,-99.99,Meteorologica,2013-02-28 18:47:00,
2013-02-28 12:52:00,33.4,28.7,30.24,NW,319,5.4,10.0,82,0.00,,,-99.99,Meteorologica,2013-02-28 18:52:00,
2013-02-28 12:57:00,33.7,28.7,30.24,NNW,342,5.8,9.7,81,0.00,,,-99.99,Meteorologica,2013-02-28 18:57:00,
2013-02-28 13:02:00,33.9,28.9,30.24,NNW,327,4.5,8.2,81,0.00,,,-99.99,Meteorologica,2013-02-28 19:02:00,
2013-02-28 13:07:00,34.0,29.0,30.24,NNW,340,1.7,8.4,81,0.00,,,-99.99,Meteorologica,2013-02-28 19:07:00,
2013-02-28 13:12:00,34.2,29.1,30.23,NNW,346,3.4,7.1,81,0.00,,,-99.99,Meteorologica,2013-02-28 19:12:00,
2013-02-28 13:17:00,34.2,29.3,30.23,SE,128,6.5,9.7,81,0.00,,,-99.99,Meteorologica,2013-02-28 19:17:00,
2013-02-28 13:22:00,34.4,29.4,30.23,North,350,2.6,7.8,81,0.00,,,-99.99,Meteorologica,2013-02-28 19:22:00,
2013-02-28 13:27:00,34.7,29.3,30.23,NNW,334,3.2,7.8,80,0.00,,,-99.99,Meteorologica,2013-02-28 19:27:00,
2013-02-28 13:32:00,34.6,29.3,30.23,North,353,4.7,9.5,80,0.00,,,-99.99,Meteorologica,2013-02-28 19:32:00,
2013-02-28 13:37:00,34.6,28.9,30.23,WNW,303,0.0,9.4,79,0.00,,,-99.99,Meteorologica,2013-02-28 19:37:00,
2013-02-28 13:42:00,34.7,29.6,30.23,NNE,31,5.4,8.0,81,0.00,,,-99.99,Meteorologica,2013-02-28 19:42:00,
2013-02-28 13:47:00,34.9,29.6,30.23,ESE,111,1.3,9.4,80,0.00,,,-99.99,Meteorologica,2013-02-28 19:47:00,
2013-02-28 13:52:00,34.9,29.2,30.22,ESE,119,5.4,9.9,79,0.00,,,-99.99,Meteorologica,2013-02-28 19:52:00,
2013-02-28 13:57:00,34.9,29.2,30.22,NNW,335,2.8,6.5,79,0.00,,,-99.99,Meteorologica,2013-02-28 19:57:00,
2013-02-28 14:02:00,34.8,29.1,30.22,WNW,300,7.4,11.2,79,0.00,,,-99.99,Meteorologica,2013-02-28 20:02:00,
2013-02-28 14:07:00,34.9,29.3,30.22,NNW,333,1.6,8.3,79,0.00,,,-99.99,Meteorologica,2013-02-28 20:07:00,
2013-02-28 14:12:00,35.2,29.8,30.22,NNW,334,0.6,7.1,80,0.00,,,-99.99,Meteorologica,2013-02-28 20:12:00,
2013-02-28 14:17:00,35.5,29.7,30.22,NNW,327,4.6,14.8,79,0.00,,,-99.99,Meteorologica,2013-02-28 20:17:00,
2013-02-28 14:22:00,35.5,28.7,30.22,ESE,118,6.8,14.7,75,0.00,,,-99.99,Meteorologica,2013-02-28 20:22:00,
2013-02-28 14:27:00,35.7,29.3,30.22,NNW,332,3.2,7.9,77,0.00,,,-99.99,Meteorologica,2013-02-28 20:27:00,
2013-02-28 14:32:00,36.0,29.5,30.21,NNW,344,0.0,7.6,76,0.00,,,-99.99,Meteorologica,2013-02-28 20:32:00,
2013-02-28 14:37:00,36.4,29.4,30.21,NNW,337,3.5,10.0,75,0.00,,,-99.99,Meteorologica,2013-02-28 20:37:00,
2013-02-28 14:42:00,36.6,29.7,30.21,NW,316,2.5,8.1,75,0.00,,,-99.99,Meteorologica,2013-02-28 20:42:00,
2013-02-28 14:47:00,36.3,28.9,30.21,NNW,334,5.6,10.2,74,0.00,,,-99.99,Meteorologica,2013-02-28 20:47:00,
2013-02-28 14:52:00,36.5,29.5,30.21,WSW,239,6.7,9.2,75,0.00,,,-99.99,Meteorologica,2013-02-28 20:52:00,
2013-02-28 14:57:00,36.5,29.4,30.22,NW,322,2.8,9.2,75,0.00,,,-99.99,Meteorologica,2013-02-28 20:57:00,
2013-02-28 15:02:00,36.5,29.3,30.22,NNW,327,4.4,6.9,74,0.00,,,-99.99,Meteorologica,2013-02-28 21:02:00,
2013-02-28 15:07:00,36.7,29.4,30.22,NNE,16,4.2,6.8,74,0.00,,,-99.99,Meteorologica,2013-02-28 21:07:00,
2013-02-28 15:12:00,36.7,29.9,30.22,NW,319,3.2,6.4,75,0.00,,,-99.99,Meteorologica,2013-02-28 21:12:00,
2013-02-28 15:17:00,36.3,29.1,30.22,NNW,335,2.7,11.2,74,0.00,,,-99.99,Meteorologica,2013-02-28 21:17:00,
2013-02-28 15:22:00,36.3,29.8,30.22,NW,326,0.0,0.0,76,0.00,,,-99.99,Meteorologica,2013-02-28 21:22:00,
2013-02-28 15:27:00,36.2,29.2,30.22,North,358,5.7,7.9,75,0.00,,,-99.99,Meteorologica,2013-02-28 21:27:00,
2013-02-28 15:32:00,36.3,29.2,30.22,NNW,338,4.6,8.7,75,0.00,,,-99.99,Meteorologica,2013-02-28 21:32:00,
2013-02-28 15:37:00,36.4,29.7,30.22,NNW,347,3.8,8.4,76,0.00,,,-99.99,Meteorologica,2013-02-28 21:37:00,
2013-02-28 15:42:00,36.6,29.6,30.22,WNW,303,0.4,6.6,75,0.00,,,-99.99,Meteorologica,2013-02-28 21:42:00,
2013-02-28 15:47:00,36.4,29.3,30.22,NNW,344,5.0,7.4,75,0.00,,,-99.99,Meteorologica,2013-02-28 21:47:00,
2013-02-28 15:52:00,36.4,29.1,30.22,North,358,2.0,8.1,74,0.00,,,-99.99,Meteorologica,2013-02-28 21:52:00,
2013-02-28 15:57:00,36.4,29.2,30.22,NW,320,3.2,8.0,74,0.00,,,-99.99,Meteorologica,2013-02-28 21:57:00,
2013-02-28 16:02:00,36.4,29.6,30.22,WSW,237,4.2,6.6,75,0.00,,,-99.99,Meteorologica,2013-02-28 22:02:00,
2013-02-28 16:07:00,36.4,29.2,30.22,NNW,327,3.9,5.8,74,0.00,,,-99.99,Meteorologica,2013-02-28 22:07:00,
2013-02-28 16:12:00,36.4,29.5,30.22,NNW,341,0.0,0.0,75,0.00,,,-99.99,Meteorologica,2013-02-28 22:12:00,
2013-02-28 16:17:00,36.2,29.0,30.22,NNW,343,0.0,6.7,74,0.00,,,-99.99,Meteorologica,2013-02-28 22:17:00,
2013-02-28 16:22:00,36.2,28.9,30.22,NNE,22,6.3,8.7,74,0.00,,,-99.99,Meteorologica,2013-02-28 22:22:00,
2013-02-28 16:27:00,36.2,29.4,30.22,NNW,333,0.0,8.4,75,0.00,,,-99.99,Meteorologica,2013-02-28 22:27:00,
2013-02-28 16:32:00,36.0,29.3,30.22,NNW,340,0.0,8.1,76,0.00,,,-99.99,Meteorologica,2013-02-28 22:32:00,
2013-02-28 16:37:00,35.7,28.9,30.22,NNW,335,4.2,7.9,75,0.00,,,-99.99,Meteorologica,2013-02-28 22:37:00,
2013-02-28 16:42:00,35.8,29.2,30.22,NW,314,0.0,6.6,76,0.00,,,-99.99,Meteorologica,2013-02-28 22:42:00,
2013-02-28 16:47:00,35.8,29.3,30.22,NW,314,0.0,0.0,76,0.00,,,-99.99,Meteorologica,2013-02-28 22:47:00,
2013-02-28 16:52:00,35.6,29.1,30.22,NNW,336,2.2,6.9,76,0.00,,,-99.99,Meteorologica,2013-02-28 22:52:00,
2013-02-28 16:57:00,35.4,29.2,30.22,NW,314,0.0,8.0,77,0.00,,,-99.99,Meteorologica,2013-02-28 22:57:00,
2013-02-28 17:02:00,35.4,29.2,30.22,NW,314,0.0,0.0,77,0.00,,,-99.99,Meteorologica,2013-02-28 23:02:00,
2013-02-28 17:07:00,35.3,29.2,30.22,NW,314,0.0,0.0,78,0.00,,,-99.99,Meteorologica,2013-02-28 23:07:00,
2013-02-28 17:12:00,35.2,29.1,30.22,NW,314,0.0,0.0,78,0.00,,,-99.99,Meteorologica,2013-02-28 23:12:00,
2013-02-28 17:17:00,35.2,29.6,30.22,NNW,344,3.9,4.7,79,0.00,,,-99.99,Meteorologica,2013-02-28 23:17:00,
2013-02-28 17:22:00,35.1,29.7,30.22,NW,318,1.2,5.9,80,0.00,,,-99.99,Meteorologica,2013-02-28 23:22:00,
2013-02-28 17:27:00,34.9,29.8,30.22,NNW,338,3.3,6.3,81,0.00,,,-99.99,Meteorologica,2013-02-28 23:27:00,
2013-02-28 17:32:00,34.7,29.6,30.22,NW,304,2.1,6.7,81,0.00,,,-99.99,Meteorologica,2013-02-28 23:32:00,
2013-02-28 17:37:00,34.4,29.3,30.23,NNW,328,3.0,8.7,81,0.00,,,-99.99,Meteorologica,2013-02-28 23:37:00,
2013-02-28 17:42:00,34.4,29.6,30.22,NNW,330,0.9,5.4,82,0.00,,,-99.99,Meteorologica,2013-02-28 23:42:00,
2013-02-28 17:47:00,34.3,29.3,30.23,NNW,335,5.0,7.4,81,0.00,,,-99.99,Meteorologica,2013-02-28 23:47:00,
2013-02-28 17:52:00,34.2,29.1,30.23,North,358,3.8,6.3,81,0.00,,,-99.99,Meteorologica,2013-02-28 23:52:00,
2013-02-28 17:57:00,34.2,29.5,30.23,ESE,123,2.0,5.8,82,0.00,,,-99.99,Meteorologica,2013-02-28 23:57:00,
2013-02-28 18:02:00,34.2,29.3,30.23,NNW,337,0.0,5.6,82,0.00,,,-99.99,Meteorologica,2013-03-01 00:02:00,
2013-02-28 18:07:00,34.2,29.4,30.23,WNW,300,0.7,4.8,82,0.00,,,-99.99,Meteorologica,2013-03-01 00:07:00,
2013-02-28 18:12:00,34.1,29.3,30.23,NNW,327,3.6,6.0,82,0.00,,,-99.99,Meteorologica,2013-03-01 00:12:00,
2013-02-28 18:17:00,34.1,29.2,30.24,NW,326,4.1,7.0,82,0.00,,,-99.99,Meteorologica,2013-03-01 00:17:00,
2013-02-28 18:22:00,34.0,29.2,30.24,NW,314,1.8,5.9,82,0.00,,,-99.99,Meteorologica,2013-03-01 00:22:00,
2013-02-28 18:27:00,33.9,29.1,30.24,NW,314,0.0,0.0,82,0.00,,,-99.99,Meteorologica,2013-03-01 00:27:00,
2013-02-28 18:32:00,33.8,28.9,30.24,NW,319,0.1,0.0,82,0.00,,,-99.99,Meteorologica,2013-03-01 00:32:00,
2013-02-28 18:37:00,33.7,28.5,30.23,NNW,329,5.0,7.6,81,0.00,,,-99.99,Meteorologica,2013-03-01 00:37:00,
2013-02-28 18:42:00,33.7,28.6,30.24,North,352,4.5,8.0,81,0.00,,,-99.99,Meteorologica,2013-03-01 00:42:00,
2013-02-28 18:47:00,33.7,28.6,30.23,North,354,0.0,5.0,81,0.00,,,-99.99,Meteorologica,2013-03-01 00:47:00,
2013-02-28 18:52:00,33.6,28.3,30.24,SW,232,4.6,7.3,80,0.00,,,-99.99,Meteorologica,2013-03-01 00:52:00,
2013-02-28 18:57:00,33.7,28.6,30.24,NNW,339,1.7,6.6,81,0.00,,,-99.99,Meteorologica,2013-03-01 00:57:00,
2013-02-28 19:02:00,33.3,28.2,30.24,NNW,337,5.1,8.7,81,0.00,,,-99.99,Meteorologica,2013-03-01 01:02:00,
2013-02-28 19:07:00,33.5,28.6,30.24,NNW,333,2.0,6.5,82,0.00,,,-99.99,Meteorologica,2013-03-01 01:07:00,
2013-02-28 19:12:00,33.5,28.7,30.24,NNE,29,0.6,5.7,82,0.00,,,-99.99,Meteorologica,2013-03-01 01:12:00,
2013-02-28 19:17:00,33.4,28.2,30.24,SW,231,4.8,8.5,80,0.00,,,-99.99,Meteorologica,2013-03-01 01:17:00,
2013-02-28 19:22:00,33.4,28.3,30.24,North,7,4.7,5.8,81,0.00,,,-99.99,Meteorologica,2013-03-01 01:22:00,
2013-02-28 19:27:00,33.3,28.3,30.24,NW,313,5.2,8.0,81,0.00,,,-99.99,Meteorologica,2013-03-01 01:27:00,
2013-02-28 19:32:00,33.3,28.3,30.25,NNW,343,0.0,5.8,82,0.00,,,-99.99,Meteorologica,2013-03-01 01:32:00,
2013-02-28 19:37:00,33.2,28.4,30.24,NW,326,4.8,6.8,82,0.00,,,-99.99,Meteorologica,2013-03-01 01:37:00,
2013-02-28 19:42:00,33.1,28.1,30.25,North,356,4.2,7.1,81,0.00,,,-99.99,Meteorologica,2013-03-01 01:42:00,
2013-02-28 19:47:00,33.2,28.2,30.24,NW,326,4.5,8.1,81,0.00,,,-99.99,Meteorologica,2013-03-01 01:47:00,
2013-02-28 19:52:00,33.1,28.1,30.25,WSW,239,5.8,8.9,81,0.00,,,-99.99,Meteorologica,2013-03-01 01:52:00,
2013-02-28 19:57:00,33.1,28.1,30.25,SW,234,6.2,7.7,81,0.00,,,-99.99,Meteorologica,2013-03-01 01:57:00,
2013-02-28 20:02:00,33.0,28.1,30.25,NNW,339,4.3,6.3,81,0.00,,,-99.99,Meteorologica,2013-03-01 02:02:00,
2013-02-28 20:07:00,33.0,28.3,30.25,North,354,2.5,4.5,82,0.00,,,-99.99,Meteorologica,2013-03-01 02:07:00,
2013-02-28 20:12:00,32.9,28.2,30.25,ESE,117,0.6,6.0,82,0.00,,,-99.99,Meteorologica,2013-03-01 02:12:00,
2013-02-28 20:17:00,32.9,28.3,30.25,NNW,327,2.1,6.6,82,0.00,,,-99.99,Meteorologica,2013-03-01 02:17:00,
2013-02-28 20:22:00,32.8,28.0,30.25,North,352,4.6,6.5,82,0.00,,,-99.99,Meteorologica,2013-03-01 02:22:00,
2013-02-28 20:27:00,32.7,28.2,30.25,NNE,16,0.0,0.0,83,0.00,,,-99.99,Meteorologica,2013-03-01 02:27:00,
2013-02-28 20:32:00,32.6,27.9,30.25,NNW,328,3.0,5.2,82,0.00,,,-99.99,Meteorologica,2013-03-01 02:32:00,
2013-02-28 20:37:00,32.6,28.1,30.25,NNW,347,0.0,6.7,83,0.00,,,-99.99,Meteorologica,2013-03-01 02:37:00,
2013-02-28 20:42:00,32.6,28.1,30.25,North,350,0.0,7.1,83,0.00,,,-99.99,Meteorologica,2013-03-01 02:42:00,
2013-02-28 20:47:00,32.6,28.1,30.25,NNW,338,0.0,3.0,83,0.00,,,-99.99,Meteorologica,2013-03-01 02:47:00,
2013-02-28 20:52:00,32.5,28.2,30.25,NE,39,0.0,5.0,84,0.00,,,-99.99,Meteorologica,2013-03-01 02:52:00,
2013-02-28 20:57:00,32.5,28.3,30.25,ESE,118,3.2,7.8,84,0.00,,,-99.99,Meteorologica,2013-03-01 02:57:00,
2013-02-28 21:02:00,32.5,28.3,30.25,NNW,343,3.2,5.9,84,0.00,,,-99.99,Meteorologica,2013-03-01 03:02:00,
2013-02-28 21:07:00,32.5,28.3,30.25,NNW,347,0.0,3.5,84,0.00,,,-99.99,Meteorologica,2013-03-01 03:07:00,
2013-02-28 21:12:00,32.4,28.2,30.25,NW,314,0.5,6.5,84,0.00,,,-99.99,Meteorologica,2013-03-01 03:12:00,
2013-02-28 21:17:00,32.4,28.4,30.25,ESE,117,0.6,4.6,85,0.00,,,-99.99,Meteorologica,2013-03-01 03:17:00,
2013-02-28 21:22:00,32.3,27.7,30.25,NNW,333,4.5,6.3,83,0.00,,,-99.99,Meteorologica,2013-03-01 03:22:00,
2013-02-28 21:27:00,32.3,27.7,30.25,NW,317,3.5,6.1,83,0.00,,,-99.99,Meteorologica,2013-03-01 03:27:00,
2013-02-28 21:32:00,32.3,27.8,30.25,NNW,334,0.6,8.1,83,0.00,,,-99.99,Meteorologica,2013-03-01 03:32:00,
2013-02-28 21:37:00,32.2,27.3,30.25,SE,128,2.8,9.2,82,0.00,,,-99.99,Meteorologica,2013-03-01 03:37:00,
2013-02-28 21:42:00,32.1,27.2,30.26,WSW,242,6.3,9.0,82,0.00,,,-99.99,Meteorologica,2013-03-01 03:42:00,
2013-02-28 21:47:00,31.9,27.0,30.25,NW,318,4.0,10.3,82,0.00,,,-99.99,Meteorologica,2013-03-01 03:47:00,
2013-02-28 21:52:00,32.0,27.1,30.25,NW,319,4.4,7.4,82,0.00,,,-99.99,Meteorologica,2013-03-01 03:52:00,
2013-02-28 21:57:00,32.0,27.4,30.25,North,349,4.9,7.6,83,0.00,,,-99.99,Meteorologica,2013-03-01 03:57:00,
2013-02-28 22:02:00,32.0,27.4,30.25,NNW,334,3.3,7.6,83,0.00,,,-99.99,Meteorologica,2013-03-01 04:02:00,
2013-02-28 22:07:00,31.9,27.5,30.25,North,351,3.6,7.4,83,0.00,,,-99.99,Meteorologica,2013-03-01 04:07:00,
2013-02-28 22:12:00,31.8,27.4,30.25,NW,324,4.5,5.8,83,0.00,,,-99.99,Meteorologica,2013-03-01 04:12:00,
2013-02-28 22:17:00,31.7,27.2,30.25,WSW,239,5.4,8.9,83,0.00,,,-99.99,Meteorologica,2013-03-01 04:17:00,
2013-02-28 22:22:00,31.7,27.3,30.25,North,359,3.5,7.9,83,0.00,,,-99.99,Meteorologica,2013-03-01 04:22:00,
2013-02-28 22:27:00,31.7,27.5,30.25,North,355,3.8,7.1,84,0.00,,,-99.99,Meteorologica,2013-03-01 04:27:00,
2013-02-28 22:32:00,31.4,27.1,30.25,ENE,64,7.5,10.7,84,0.00,,,-99.99,Meteorologica,2013-03-01 04:32:00,
2013-02-28 22:37:00,31.1,26.9,30.25,NNE,15,4.7,12.6,84,0.00,,,-99.99,Meteorologica,2013-03-01 04:37:00,
2013-02-28 22:42:00,30.9,26.8,30.25,NNE,12,5.9,13.7,84,0.00,,,-99.99,Meteorologica,2013-03-01 04:42:00,
2013-02-28 22:47:00,30.7,26.6,30.25,WSW,247,5.8,9.7,84,0.00,,,-99.99,Meteorologica,2013-03-01 04:47:00,
2013-02-28 22:52:00,30.5,26.5,30.25,North,7,5.8,10.2,85,0.00,,,-99.99,Meteorologica,2013-03-01 04:52:00,
2013-02-28 22:57:00,30.5,26.6,30.25,NE,42,5.0,7.9,85,0.00,,,-99.99,Meteorologica,2013-03-01 04:57:00,
2013-02-28 23:01:00,30.5,26.7,30.25,NNW,336,4.1,8.2,85,0.00,,,-99.99,Meteorologica,2013-03-01 05:01:00,
2013-02-28 23:02:00,30.4,26.5,30.25,ENE,60,7.1,12.6,85,0.00,,,-99.99,Meteorologica,2013-03-01 05:02:00,
2013-02-28 23:05:00,30.4,26.3,30.25,North,5,5.2,10.7,84,0.00,,,-99.99,Meteorologica,2013-03-01 05:05:00,
2013-02-28 23:07:00,30.4,26.3,30.25,SE,127,3.7,10.7,84,0.00,,,-99.99,Meteorologica,2013-03-01 05:07:00,
2013-02-28 23:10:00,30.3,26.3,30.25,North,354,4.3,7.6,85,0.00,,,-99.99,Meteorologica,2013-03-01 05:10:00,
2013-02-28 23:15:00,30.3,26.4,30.25,NNE,33,3.5,5.9,85,0.00,,,-99.99,Meteorologica,2013-03-01 05:15:00,
2013-02-28 23:20:00,30.3,26.6,30.25,NNE,17,3.1,4.7,86,0.00,,,-99.99,Meteorologica,2013-03-01 05:20:00,
2013-02-28 23:25:00,30.3,26.7,30.25,ENE,72,3.7,7.6,86,0.00,,,-99.99,Meteorologica,2013-03-01 05:25:00,
2013-02-28 23:30:00,30.2,26.7,30.25,NE,46,2.2,9.6,86,0.00,,,-99.99,Meteorologica,2013-03-01 05:30:00,
2013-02-28 23:35:00,30.0,26.5,30.25,SW,235,0.5,4.5,86,0.00,,,-99.99,Meteorologica,2013-03-01 05:35:00,
2013-02-28 23:40:00,29.9,26.3,30.25,SE,131,6.2,7.6,86,0.00,,,-99.99,Meteorologica,2013-03-01 05:40:00,
2013-02-28 23:45:00,29.9,26.4,30.25,North,2,2.9,4.7,86,0.00,,,-99.99,Meteorologica,2013-03-01 05:45:00,
2013-02-28 23:50:00,29.8,26.2,30.25,SE,124,4.2,5.6,86,0.00,,,-99.99,Meteorologica,2013-03-01 05:50:00,
2013-02-28 23:55:00,29.9,26.4,30.25,NNE,21,0.0,0.0,86,0.00,,,-99.99,Meteorologica,2013-03-01 05:55:00,